Location: Orinda
(37.8771°N, 122.1797°W)
Time: 01:31:03
(UTC+00:00)

FENGYUN 3A - Pass Details

Date: 21 October 2019
Orbit: 824 x 835 km, 98.4° (Epoch: 12 November)

Event Time Altitude Azimuth Distance (km) Brightness Sun altitude
Rises 13:39:12 0° 13° (NNE) 3,391 6.9 -9.3°
Reaches altitude 10° 13:41:34 10° 13° (NNE) 2,454 6.2 -8.9°
Maximum altitude 13:47:01 88° 99° (E) 841 3.8 -7.8°
Drops below altitude 10° 13:52:26 10° 194° (SSW) 2,437 6.1 -6.7°
Sets 13:54:47 0° 194° (SSW) 3,366 6.8 -6.3°
